DW4604 Weather Reports


Display with metric or nautical units.
time (UTC)temp
F
wind
direction
speed
MPH
gust
MPH
rain 1hr
in
rain 24hr
in
rain mn
in
humidity
%
barometer
mb
20170426114453 40 55 4.0 10.0 0.01 0.42 0.32 94 1009.7
20170426113952 40 52 3.0 10.0 0.01 0.42 0.32 94 1009.7
20170426113452 40 49 4.0 11.0 0.02 0.42 0.32 94 1009.7
20170426112952 40 51 4.0 11.0 0.02 0.42 0.32 94 1009.5
20170426112452 40 52 4.0 10.0 0.02 0.42 0.32 94 1009.6
20170426111953 40 55 4.0 10.0 0.02 0.42 0.32 94 1009.7
20170426111453 40 53 3.0 9.0 0.02 0.41 0.31 95 1009.7
20170426110953 40 50 3.0 9.0 0.02 0.41 0.31 95 1009.6
20170426110453 40 48 3.0 9.0 0.02 0.41 0.31 94 1009.8
20170426105953 40 47 3.0 9.0 0.02 0.41 0.31 95 1009.9
20170426105453 40 51 4.0 10.0 0.02 0.41 0.31 94 1009.7
20170426104953 40 52 4.0 11.0 0.03 0.41 0.31 94 1009.6
20170426104453 40 56 4.0 11.0 0.04 0.41 0.31 95 1009.5
20170426103953 40 57 4.0 9.0 0.04 0.41 0.31 95 1009.5
20170426103453 40 57 4.0 9.0 0.03 0.40 0.31 95 1009.5
20170426102953 40 56 4.0 8.0 0.03 0.40 0.31 95 1009.7
20170426102452 40 53 4.0 12.0 0.04 0.40 0.31 94 1009.7
20170426101953 40 55 5.0 12.0 0.03 0.39 0.30 94 1009.7
20170426101453 40 55 4.0 9.0 0.03 0.39 0.30 94 1009.7
20170426100953 40 48 4.0 9.0 0.03 0.39 0.30 94 1009.7
20170426100453 40 47 4.0 11.0 0.03 0.39 0.29 94 1009.7
20170426095953 40 48 4.0 11.0 0.03 0.39 0.29 94 1009.8
20170426095453 40 45 3.0 11.0 0.02 0.38 0.28 94 1009.8
20170426094953 40 40 3.0 9.0 0.02 0.38 0.28 94 1010.0
20170426094453 40 37 3.0 7.0 0.02 0.37 0.28 95 1010.0
20170426093953 40 36 3.0 7.0 0.02 0.37 0.28 94 1009.9
20170426093453 40 39 3.0 6.0 0.02 0.37 0.28 95 1009.9
20170426092953 40 43 2.0 7.0 0.02 0.37 0.28 95 1009.8
20170426092454 40 51 2.0 7.0 0.02 0.36 0.27 95 1009.9
20170426091953 40 56 3.0 8.0 0.02 0.36 0.27 95 1009.8
20170426091453 40 56 3.0 8.0 0.02 0.36 0.27 94 1009.8
20170426090953 40 52 3.0 8.0 0.02 0.36 0.27 94 1009.6
20170426090453 40 52 3.0 9.0 0.01 0.35 0.26 94 1009.6
20170426085953 40 55 4.0 9.0 0.01 0.35 0.26 94 1009.7
20170426085454 40 54 4.0 7.0 0.01 0.35 0.26 94 1009.7
20170426084954 40 55 4.0 11.0 0.01 0.35 0.26 94 1009.5
20170426084453 40 55 5.0 12.0 0.01 0.35 0.26 94 1009.4
20170426083953 40 53 5.0 12.0 0.00 0.35 0.25 94 1009.4
20170426083453 39 54 4.0 12.0 0.01 0.35 0.25 95 1009.4
20170426082953 39 54 5.0 11.0 0.01 0.35 0.25 95 1009.4
20170426082453 39 54 4.0 11.0 0.01 0.35 0.25 95 1009.4
20170426081953 39 53 5.0 11.0 0.01 0.35 0.25 95 1009.4
20170426081454 39 51 5.0 11.0 0.01 0.35 0.25 95 1009.5
20170426080954 39 54 4.0 10.0 0.01 0.35 0.25 95 1009.4
20170426080453 39 55 4.0 9.0 0.02 0.35 0.25 95 1009.4
20170426075953 40 52 4.0 10.0 0.02 0.35 0.25 95 1009.4
20170426075453 40 54 4.0 10.0 0.02 0.35 0.25 96 1009.3
20170426074953 40 55 4.0 9.0 0.02 0.35 0.25 96 1009.4
20170426074453 40 52 3.0 9.0 0.02 0.35 0.25 96 1009.3
20170426073954 40 45 2.0 6.0 0.03 0.35 0.25 96 1009.3
20170426073454 40 42 3.0 7.0 0.02 0.34 0.24 96 1009.3
20170426072954 40 39 3.0 8.0 0.03 0.34 0.24 96 1009.3
20170426072453 40 36 2.0 8.0 0.03 0.34 0.24 96 1009.3
20170426071953 40 36 2.0 6.0 0.04 0.34 0.24 96 1009.4
20170426071453 40 31 3.0 7.0 0.04 0.34 0.24 96 1009.3
20170426070954 40 29 3.0 7.0 0.05 0.34 0.24 96 1009.4
20170426070454 40 27 2.0 7.0 0.04 0.33 0.24 96 1009.4
20170426065954 39 22 2.0 7.0 0.04 0.33 0.24 96 1009.5
20170426065454 39 18 3.0 7.0 0.03 0.32 0.23 96 1009.5
20170426064954 39 20 2.0 7.0 0.03 0.32 0.23 96 1009.6
20170426064453 39 25 2.0 7.0 0.03 0.32 0.23 96 1009.6
20170426063953 39 31 3.0 8.0 0.02 0.31 0.22 96 1009.5
20170426063453 39 30 3.0 8.0 0.03 0.31 0.22 96 1009.4
20170426062954 39 28 3.0 8.0 0.02 0.31 0.21 96 1009.4
20170426062454 39 29 3.0 8.0 0.03 0.31 0.21 96 1009.5
20170426061954 39 30 2.0 6.0 0.03 0.30 0.20 96 1009.5
20170426061454 39 26 2.0 5.0 0.04 0.30 0.20 96 1009.5
20170426060954 39 21 2.0 7.0 0.03 0.29 0.20 96 1009.5
20170426060454 39 13 2.0 7.0 0.04 0.29 0.20 96 1009.5
20170426055954 39 15 2.0 6.0 0.04 0.29 0.20 96 1009.6
20170426055454 39 31 2.0 6.0 0.04 0.29 0.20 96 1009.5
20170426054954 39 40 2.0 6.0 0.05 0.29 0.20 96 1009.2
20170426054453 39 28 2.0 7.0 0.05 0.29 0.20 96 1009.1
20170426053954 39 21 3.0 9.0 0.05 0.29 0.20 96 1009.2
20170426053454 39 16 2.0 9.0 0.04 0.28 0.19 96 1009.2
20170426052954 40 12 2.0 5.0 0.04 0.28 0.19 96 1009.4
20170426052454 39 12 3.0 6.0 0.03 0.28 0.18 96 1009.3
20170426051954 39 8 3.0 6.0 0.02 0.27 0.17 96 1009.4
20170426051454 39 11 3.0 6.0 0.02 0.26 0.17 96 1009.3
20170426050954 40 24 2.0 6.0 0.02 0.26 0.17 96 1009.0
20170426050454 40 34 2.0 7.0 0.02 0.25 0.16 96 1008.8
20170426045954 39 32 2.0 7.0 0.02 0.25 0.16 96 1008.7
20170426045454 39 17 3.0 6.0 0.02 0.25 0.16 96 1008.7
20170426044954 39 16 3.0 9.0 0.02 0.24 0.15 96 1008.7
20170426044454 39 23 2.0 9.0 0.02 0.24 0.15 96 1008.7
20170426043955 40 32 2.0 5.0 0.02 0.24 0.15 96 1008.6
20170426043454 40 43 2.0 5.0 0.02 0.24 0.15 96 1008.6
20170426042954 40 45 2.0 6.0 0.02 0.24 0.15 96 1008.4
20170426042454 40 47 2.0 9.0 0.02 0.24 0.15 96 1008.2
20170426041954 40 57 4.0 9.0 0.03 0.24 0.15 95 1008.1
20170426041454 40 62 3.0 9.0 0.02 0.24 0.14 96 1008.0
20170426040954 40 60 2.0 6.0 0.02 0.24 0.14 96 1008.1
20170426040454 40 55 3.0 8.0 0.02 0.24 0.14 95 1008.1
20170426035955 40 52 3.0 8.0 0.02 0.24 0.14 95 1008.0
20170426035455 40 51 2.0 7.0 0.02 0.23 0.13 95 1008.3
20170426034954 40 48 2.0 6.0 0.02 0.23 0.13 95 1008.4
20170426034454 40 40 3.0 6.0 0.02 0.22 0.13 95 1008.5
20170426033954 40 34 3.0 6.0 0.02 0.22 0.13 95 1008.5
20170426033454 40 25 3.0 6.0 0.02 0.22 0.13 95 1008.3
20170426032955 41 21 3.0 8.0 0.02 0.22 0.13 95 1008.3
20170426031955 41 25 3.0 9.0 0.02 0.21 0.12 95 1008.2
20170426031454 41 47 3.0 8.0 0.02 0.21 0.12 95 1008.0
20170426030954 42 49 3.0 8.0 0.02 0.21 0.12 95 1007.9
20170426030454 42 41 2.0 6.0 0.02 0.21 0.12 95 1007.9
20170426025954 42 21 1.0 6.0 0.02 0.21 0.12 95 1007.8
20170426025454 42 26 2.0 3.0 0.02 0.21 0.12 95 1007.6
20170426024954 42 30 2.0 6.0 0.01 0.20 0.11 95 1007.4
20170426024454 42 18 2.0 6.0 0.01 0.20 0.11 95 1007.4
20170426023955 42 351 1.0 6.0 0.02 0.20 0.11 95 1007.5
20170426023455 42 352 2.0 6.0 0.02 0.20 0.11 95 1007.4
20170426022955 42 5 2.0 5.0 0.02 0.20 0.11 95 1007.4
20170426022454 42 2 1.0 4.0 0.01 0.20 0.10 95 1007.3
20170426021954 43 344 0.0 3.0 0.01 0.20 0.10 95 1007.3
20170426021455 43 15 0.0 3.0 0.01 0.20 0.10 95 1007.4
20170426020955 43 30 0.0 1.0 0.01 0.20 0.10 95 1007.5
20170426020455 43 5 0.0 1.0 0.01 0.20 0.10 95 1007.6
20170426015955 43 33 0.0 2.0 0.01 0.20 0.10 95 1007.5
20170426015454 43 37 0.0 3.0 0.01 0.20 0.10 95 1007.4
20170426014954 43 26 0.0 3.0 0.01 0.20 0.10 95 1007.5
20170426014454 43 358 0.0 3.0 0.01 0.20 0.10 94 1007.6
20170426013954 43 7 1.0 4.0 0.01 0.19 0.09 94 1007.7
20170426013454 43 7 1.0 4.0 0.01 0.19 0.09 94 1007.7
20170426012955 43 359 1.0 3.0 0.01 0.19 0.09 94 1007.7
20170426012455 43 9 1.0 4.0 0.01 0.19 0.09 94 1007.7
20170426011955 43 19 0.0 4.0 0.01 0.19 0.09 94 1007.7
20170426011455 43 352 1.0 4.0 0.01 0.19 0.09 94 1007.6
20170426010955 43 356 1.0 4.0 0.01 0.19 0.09 94 1007.7
20170426010456 43 21 1.0 4.0 0.01 0.19 0.09 94 1007.6
20170426005955 43 27 1.0 6.0 0.01 0.19 0.09 94 1007.4
20170426005455 43 15 2.0 7.0 0.01 0.19 0.09 93 1007.5
20170426004955 43 12 2.0 7.0 0.01 0.19 0.09 93 1007.4
20170426004455 43 25 3.0 8.0 0.01 0.19 0.09 93 1007.3
20170426003955 44 31 3.0 8.0 0.00 0.18 0.09 93 1007.3
20170426003455 44 25 2.0 8.0 0.00 0.18 0.09 94 1007.5
20170426002955 44 10 1.0 5.0 0.00 0.18 0.09 94 1007.4
20170426002455 44 348 1.0 4.0 0.00 0.18 0.09 93 1007.4
20170426001955 44 335 1.0 4.0 0.00 0.18 0.09 93 1007.5
20170426001455 44 331 2.0 7.0 0.01 0.18 0.09 93 1007.4
20170426000955 44 328 4.0 9.0 0.01 0.18 0.09 93 1007.5
20170426000456 44 327 3.0 9.0 0.04 0.18 0.09 93 1007.5
20170425235955 45 331 2.0 8.0 0.06 0.18 0.09 93 1007.4
20170425235455 45 325 3.0 9.0 0.06 0.18 0.09 92 1007.3
20170425234955 45 322 3.0 9.0 0.06 0.18 0.09 92 1007.6
20170425234455 45 335 2.0 8.0 0.06 0.18 0.09 92 1007.4
20170425233955 45 353 2.0 8.0 0.06 0.18 0.09 92 1007.1
20170425233455 45 1 2.0 8.0 0.06 0.18 0.09 92 1007.0
20170425232955 45 14 2.0 6.0 0.06 0.18 0.09 92 1007.0
20170425232455 45 13 3.0 6.0 0.06 0.18 0.09 92 1007.0
20170425231955 46 1 3.0 7.0 0.06 0.18 0.09 91 1007.0
20170425231455 46 346 4.0 10.0 0.05 0.17 0.08 91 1007.0
20170425230956 46 342 3.0 10.0 0.05 0.17 0.08 90 1007.2
20170425230456 46 342 3.0 9.0 0.01 0.13 0.04 90 1007.4
20170425225955 47 356 4.0 9.0 0.03 0.13 0.03 91 1007.3
20170425225455 47 355 4.0 9.0 0.03 0.13 0.03 91 1007.0
20170425224956 47 342 4.0 9.0 0.03 0.13 0.03 91 1007.2
20170425224456 47 333 3.0 9.0 0.04 0.13 0.03 91 1007.1
20170425223955 47 337 3.0 6.0 0.05 0.13 0.03 91 1007.1
20170425223455 47 346 3.0 8.0 0.06 0.13 0.03 91 1007.0
20170425222955 47 359 4.0 11.0 0.06 0.13 0.03 91 1007.0
20170425222455 47 13 4.0 11.0 0.06 0.13 0.03 92 1006.8
20170425221955 47 17 4.0 8.0 0.06 0.13 0.03 92 1006.7
20170425221455 48 11 3.0 7.0 0.06 0.13 0.03 92 1006.6
20170425220956 48 5 3.0 8.0 0.06 0.13 0.03 91 1006.5
20170425220456 48 5 3.0 9.0 0.06 0.12 0.02 91 1006.7
20170425215956 49 355 3.0 9.0 0.03 0.09 0.00 91 1006.7
20170425215456 49 347 3.0 9.0 0.03 0.09 0.09 90 1006.6
20170425214956 49 350 4.0 8.0 0.03 0.09 0.09 89 1006.6
20170425214456 49 351 4.0 10.0 0.02 0.09 0.09 88 1006.7
20170425213956 50 347 4.0 10.0 0.02 0.08 0.08 87 1006.5
20170425213456 50 352 4.0 11.0 0.01 0.07 0.07 86 1006.2
20170425212956 51 351 4.0 11.0 0.00 0.06 0.06 84 1006.2
20170425212455 52 350 4.0 9.0 0.00 0.06 0.06 84 1006.1
20170425211955 52 1 2.0 9.0 0.00 0.06 0.06 84 1006.1
20170425211455 53 344 1.0 6.0 0.00 0.06 0.06 86 1006.0
20170425210955 53 318 1.0 3.0 0.00 0.06 0.06 86 1005.9
20170425210455 53 321 0.0 2.0 0.00 0.06 0.06 86 1006.0
20170425205955 53 315 0.0 2.0 0.00 0.06 0.06 86 1005.6
20170425205456 53 306 1.0 2.0 0.00 0.06 0.06 86 1005.5
20170425204956 53 301 1.0 2.0 0.00 0.06 0.06 86 1005.8
20170425204456 53 263 0.0 1.0 0.00 0.06 0.06 85 1005.7
20170425203956 53 0 0.0 0.0 0.00 0.06 0.06 85 1005.5
20170425203456 53 122 0.0 1.0 0.00 0.06 0.06 85 1005.5
20170425202956 53 122 0.0 1.0 0.00 0.06 0.06 84 1005.6
20170425202456 53 142 0.0 4.0 0.00 0.06 0.06 84 1005.5
20170425201956 53 151 1.0 4.0 0.00 0.06 0.06 83 1005.7
20170425201456 53 157 1.0 4.0 0.00 0.06 0.06 83 1005.6
20170425200956 53 163 2.0 4.0 0.00 0.06 0.06 82 1005.7
20170425200456 54 167 2.0 4.0 0.00 0.06 0.06 81 1005.7
20170425195956 54 166 1.0 3.0 0.00 0.06 0.06 80 1005.7
20170425195456 54 169 1.0 3.0 0.00 0.06 0.06 79 1005.7
20170425194956 54 172 1.0 3.0 0.00 0.06 0.06 79 1005.7
20170425194456 54 183 1.0 4.0 0.00 0.06 0.06 79 1005.6
20170425193956 54 203 1.0 4.0 0.00 0.06 0.06 79 1005.7
20170425193456 54 212 0.0 3.0 0.00 0.06 0.06 78 1005.8
20170425192956 55 230 0.0 2.0 0.00 0.06 0.06 77 1005.8
20170425192455 55 241 0.0 2.0 0.00 0.06 0.06 77 1005.7
20170425191956 55 245 0.0 2.0 0.00 0.06 0.06 76 1005.6
20170425191456 55 229 1.0 3.0 0.00 0.06 0.06 76 1005.6
20170425190956 55 226 1.0 3.0 0.00 0.06 0.06 76 1005.3
20170425190456 55 219 2.0 5.0 0.00 0.06 0.06 76 1005.1
20170425185956 55 216 2.0 5.0 0.00 0.06 0.06 76 1005.1
20170425185456 55 202 2.0 5.0 0.00 0.06 0.06 77 1005.0
20170425184956 54 186 2.0 5.0 0.00 0.06 0.06 77 1005.0
20170425184456 55 183 2.0 6.0 0.00 0.06 0.06 76 1005.0
20170425183956 55 178 2.0 6.0 0.00 0.06 0.06 75 1005.0
20170425183456 55 174 2.0 4.0 0.00 0.06 0.06 74 1005.0
20170425182956 56 177 2.0 4.0 0.00 0.06 0.06 73 1005.0
20170425182456 56 206 2.0 6.0 0.00 0.06 0.06 72 1005.1
20170425181956 56 221 3.0 6.0 0.00 0.06 0.06 72 1005.1
20170425181456 56 219 3.0 9.0 0.00 0.06 0.06 72 1005.2
20170425180956 56 220 3.0 9.0 0.00 0.06 0.06 72 1005.2
20170425180456 56 219 3.0 6.0 0.00 0.06 0.06 72 1005.1
20170425175957 56 207 2.0 6.0 0.00 0.06 0.06 72 1005.0
20170425175457 56 200 2.0 4.0 0.00 0.06 0.06 71 1004.9
20170425174957 56 214 2.0 4.0 0.00 0.06 0.06 71 1004.9
20170425174457 57 223 3.0 8.0 0.00 0.06 0.06 71 1005.1
20170425173957 57 223 3.0 8.0 0.00 0.06 0.06 70 1005.2
20170425173457 57 224 3.0 6.0 0.00 0.06 0.06 70 1005.1
20170425172957 57 229 2.0 6.0 0.00 0.06 0.06 70 1005.1
20170425172457 57 229 3.0 6.0 0.00 0.06 0.06 69 1005.1
20170425171957 58 228 3.0 7.0 0.00 0.06 0.06 69 1005.1
20170425171457 58 229 2.0 7.0 0.00 0.06 0.06 68 1005.0
20170425170957 58 219 2.0 5.0 0.00 0.06 0.06 68 1004.9
20170425170457 58 215 2.0 5.0 0.00 0.06 0.06 68 1005.0
20170425165957 58 221 3.0 6.0 0.00 0.06 0.06 68 1004.9
20170425165456 58 220 4.0 9.0 0.00 0.06 0.06 68 1005.0
20170425164956 58 218 4.0 9.0 0.00 0.06 0.06 68 1005.1
20170425164456 58 220 5.0 11.0 0.00 0.06 0.06 68 1005.3
20170425163956 58 222 6.0 11.0 0.00 0.06 0.06 68 1005.2
20170425163456 58 225 7.0 15.0 0.00 0.06 0.06 68 1005.2
20170425162956 58 224 7.0 15.0 0.00 0.06 0.06 68 1005.1
20170425162456 58 225 7.0 16.0 0.00 0.06 0.06 68 1005.2
20170425161956 58 227 7.0 16.0 0.00 0.06 0.06 68 1005.3
20170425161456 58 226 7.0 13.0 0.00 0.06 0.06 68 1005.3
20170425160957 58 228 6.0 14.0 0.00 0.06 0.06 68 1005.3
20170425160457 58 231 5.0 14.0 0.00 0.06 0.06 68 1005.1
20170425155957 58 229 5.0 10.0 0.00 0.06 0.06 69 1005.1
20170425155457 58 226 6.0 13.0 0.00 0.06 0.06 68 1005.0
20170425154957 58 227 8.0 16.0 0.00 0.06 0.06 67 1005.1
20170425154457 58 226 8.0 20.0 0.00 0.06 0.06 67 1005.1
20170425153957 58 221 6.0 20.0 0.00 0.06 0.06 68 1005.1
20170425153456 58 217 6.0 12.0 0.00 0.06 0.06 69 1005.2
20170425152957 58 221 7.0 17.0 0.00 0.06 0.06 69 1005.2
20170425152457 58 225 8.0 17.0 0.00 0.06 0.06 69 1005.4
20170425151957 57 228 8.0 16.0 0.00 0.06 0.06 70 1005.7
20170425151457 57 229 7.0 16.0 0.00 0.06 0.06 70 1005.8
20170425150957 57 231 7.0 15.0 0.00 0.06 0.06 71 1005.9
20170425150457 57 228 7.0 14.0 0.00 0.06 0.06 70 1006.0
20170425145957 57 227 8.0 17.0 0.00 0.06 0.06 70 1006.0
20170425145457 57 230 7.0 17.0 0.00 0.06 0.06 70 1006.0
20170425144957 57 230 7.0 17.0 0.00 0.06 0.06 71 1006.1
20170425144456 57 231 9.0 19.0 0.01 0.06 0.06 70 1006.1
20170425143958 57 227 9.0 19.0 0.01 0.06 0.06 70 1006.2
20170425143457 57 228 7.0 15.0 0.01 0.06 0.06 72 1006.2
20170425142957 56 234 7.0 15.0 0.02 0.06 0.06 72 1006.1
20170425142457 56 234 7.0 14.0 0.02 0.06 0.06 73 1006.0
20170425141957 56 231 7.0 14.0 0.02 0.06 0.06 74 1006.0
20170425141457 55 230 6.0 13.0 0.02 0.06 0.06 76 1006.1
20170425140957 55 231 6.0 13.0 0.02 0.06 0.06 77 1006.1
20170425140457 55 231 6.0 13.0 0.03 0.06 0.06 78 1006.0
20170425135957 55 232 7.0 18.0 0.03 0.06 0.06 77 1006.0
20170425135457 55 233 7.0 18.0 0.03 0.06 0.06 78 1006.2
20170425134957 55 235 7.0 17.0 0.03 0.06 0.06 78 1006.4
20170425134457 55 235 8.0 20.0 0.02 0.06 0.06 78 1006.3
20170425133957 55 233 8.0 20.0 0.03 0.06 0.06 77 1006.3
20170425133457 55 231 8.0 17.0 0.03 0.06 0.06 78 1006.4
20170425132958 55 232 8.0 17.0 0.02 0.05 0.05 77 1006.3
20170425132458 55 231 8.0 17.0 0.02 0.05 0.05 77 1006.3
20170425131957 55 232 7.0 16.0 0.02 0.04 0.04 76 1006.3
20170425131457 55 238 6.0 12.0 0.02 0.04 0.04 79 1006.3
20170425130957 54 241 4.0 17.0 0.03 0.04 0.04 80 1006.2
20170425130457 54 243 2.0 17.0 0.03 0.03 0.03 83 1006.3
20170425125957 54 241 2.0 7.0 0.03 0.03 0.03 84 1006.3
20170425125457 53 238 2.0 7.0 0.03 0.03 0.03 84 1006.2
20170425124957 53 238 2.0 11.0 0.03 0.03 0.03 85 1006.2
20170425124457 53 239 2.0 11.0 0.03 0.03 0.03 85 1006.2
20170425123958 53 247 3.0 8.0 0.02 0.02 0.02 84 1006.2
20170425123458 53 248 3.0 8.0 0.02 0.02 0.02 83 1006.2
20170425122958 54 247 3.0 10.0 0.02 0.02 0.02 82 1006.2
20170425122457 54 249 4.0 14.0 0.02 0.02 0.02 80 1006.0
20170425121957 55 247 4.0 15.0 0.02 0.02 0.02 78 1006.2
20170425121457 56 254 3.0 15.0 0.01 0.01 0.01 76 1006.1
20170425120957 57 257 3.0 9.0 0.01 0.01 0.01 74 1006.2
20170425120458 58 252 3.0 13.0 0.00 0.00 0.00 69 1006.1
20170425115958 59 251 3.0 13.0 0.00 0.00 0.00 65 1005.8
20170425115458 60 249 2.0 9.0 0.00 0.00 0.00 63 1005.7
20170425114958 60 245 3.0 11.0 0.00 0.00 0.00 60 1005.6